Location: ??????
(41.3747°N, 22.5491°E)
Time: 15:52:11
(UTC+00:00)

Cosmos 1461 - Pass Details

Date: 01 December 2020
Orbit: 501 x 664 km, 65.0° (Epoch: 21 January)

Event Time Altitude Azimuth Distance (km) Brightness Sun altitude
Rises 16:19:12 0° 177° (S) 2,855 6.7 -14.3°
Reaches altitude 10° 16:21:46 10° 163° (SSE) 1,984 5.7 -14.8°
Maximum altitude 16:25:20 23° 111° (ESE) 1,345 4.3 -15.4°
Enters shadow 16:25:49 23° 101° (E) 1,364 4.3 -15.5°
